[[{"header":{"parameterUnit":"m.s-1","parameterCategory":1,"la1":30.2992,"la2":30.254,"lo1":-89.0895,"lo2":-89.0443,"dy":0.0025,"dx":0.0025,"nx":19,"ny":19,"refTime":"2026-03-20T03:00:00:Z","depth":0,"parameterNumber":2,"parameterNumberName":"U-component_of_WINDS"},"data":[0,0,0,0.9431,0.9433,0.9549,0.955,0.9676,0.9677,0,0,0,0,0,0,0,0,0,0,0,0.9381,0.9381,0.9431,0.9434,0.9549,0.955,0.9676,0.9677,0,0,0,0,0,0,0,0,0,0,0,0.9381,0.9381,0.9382,0.9434,0.9549,0.955,0.9676,0.9597,0,0,0,0,0,0,0,0,0,0,0.9489,0.9426,0.9381,0.9382,0.9435,0.9549,0.955,0.9594,0.9602,0.9614,0,0.9617,0,0.9649,0.9684,0.9684,0,0,0,0.9446,0.9418,0.9464,0.9382,0.9435,0.9549,0.9501,0.9599,0.9608,0.9625,0.962,0.9625,0.9651,0.9685,0.9685,0.9706,0.9706,0,0,0.944,0.9394,0.9457,0.9469,0.9447,0.9497,0.9504,0.9605,0.9597,0.962,0.9628,0.9653,0.9685,0.9686,0.9707,0.9706,0,0,0,0.9413,0.9389,0.9432,0.9463,0.9486,0.95,0.9508,0.9592,0.961,0.963,0.9655,0.9686,0.9687,0.9708,0.9707,0.9636,0,0,0,0.941,0.9373,0.9429,0.9402,0.9483,0.954,0.9493,0.9603,0.9616,0.9654,0.9686,0.9688,0.9708,0.9707,0.9639,0.961,0,0,0,0.9379,0.937,0.9381,0.9399,0.9447,0.9539,0.9564,0.9607,0.9631,0.9684,0.9688,0.9709,0.9707,0.9642,0.9615,0.9602,0,0,0,0.9333,0.9316,0.9379,0.937,0.9445,0.9494,0.9563,0.9603,0.964,0.9687,0.9708,0.9707,0.9643,0.9618,0.9605,0.9581,0.9568,0,0,0.9286,0.9309,0.9308,0.9367,0.9392,0.948,0.9497,0.9576,0.9625,0.9677,0.9679,0.9638,0.9615,0.9602,0.9508,0.9497,0,0,0,0.9278,0.9276,0.9293,0.9326,0.9385,0.9435,0.9516,0.9547,0.9593,0.9641,0.9632,0.962,0.9614,0.9606,0.9596,0.9595,0.9701,0.9701,0.9701,0.9143,0.9206,0.9209,0.9286,0.9318,0.9403,0.9435,0.9491,0.9546,0.9543,0.9558,0.9493,0.948,0.9474,0.9471,0.9552,0.9552,0.9551,0.9551,0.9079,0.9087,0.9161,0.919,0.9258,0.9285,0.9368,0.9406,0.9443,0.9486,0.9484,0.9525,0.9459,0.946,0.9547,0.9547,0.9548,0.9548,0.9549,0.8997,0.9011,0.9048,0.9104,0.9141,0.9222,0.9253,0.9315,0.9373,0.9372,0.9395,0.9396,0.9405,0.9379,0.9379,0.9378,0.9378,0.9378,0.9378,0.8896,0.894,0.8957,0.9021,0.9051,0.91,0.9188,0.9221,0.9274,0.9316,0.9317,0.9372,0.9441,0.9456,0.9375,0.9375,0.9376,0.9376,0.9376,0.8805,0.8836,0.8862,0.8893,0.8975,0.9008,0.9088,0.915,0.9187,0.92,0.9258,0.9299,0.9327,0.9335,0.9348,0.9244,0.9244,0.9244,0.9244,0.8734,0.8755,0.8797,0.8842,0.8894,0.897,0.9001,0.9071,0.9149,0.9177,0.9202,0.9225,0.9231,0.9256,0.9266,0.9279,0.9159,0.9159,0.9159,0.8681,0.8711,0.8723,0.8798,0.8868,0.8927,0.896,0.9011,0.9107,0.9157,0.92,0.9203,0.9242,0.9251,0.9298,0.9312,0.9338,0,0]},{"header":{"parameterUnit":"m.s-1","parameterCategory":1,"la1":30.2992,"la2":30.254,"lo1":-89.0895,"lo2":-89.0443,"dy":0.0025,"dx":0.0025,"nx":19,"ny":19,"refTime":"2026-03-20T03:00:00:Z","depth":0,"parameterNumber":3,"parameterNumberName":"V-component_of_WINDS"},"data":[0,0,0,4.4014,4.4016,4.4105,4.4105,4.4204,4.4204,0,0,0,0,0,0,0,0,0,0,0,4.3983,4.3983,4.4014,4.4016,4.4104,4.4105,4.4204,4.4204,0,0,0,0,0,0,0,0,0,0,0,4.3982,4.3983,4.3984,4.4017,4.4104,4.4105,4.4203,4.4141,0,0,0,0,0,0,0,0,0,0,4.4057,4.4023,4.3983,4.3984,4.4017,4.4104,4.4105,4.4138,4.4145,4.4159,0,4.4173,0,4.419,4.421,4.4211,0,0,0,4.4019,4.4018,4.4047,4.3984,4.4018,4.4104,4.4065,4.4142,4.4149,4.4167,4.4174,4.4178,4.4192,4.4211,4.4212,4.4292,4.4292,0,0,4.4014,4.3995,4.4042,4.4052,4.4041,4.4063,4.4068,4.4147,4.4151,4.4175,4.4181,4.4194,4.4212,4.4212,4.4291,4.4292,0,0,0,4.3998,4.3991,4.4019,4.4048,4.4065,4.4065,4.4072,4.4148,4.4159,4.4182,4.4195,4.4212,4.4213,4.4291,4.4291,4.4287,0,0,0,4.3995,4.3982,4.4016,4.4005,4.4063,4.4108,4.407,4.4153,4.4163,4.4194,4.4212,4.4214,4.4291,4.4291,4.4287,4.4287,0,0,0,4.3978,4.398,4.3991,4.4004,4.4042,4.4107,4.4123,4.4156,4.417,4.4211,4.4214,4.4291,4.4291,4.4286,4.4287,4.4304,0,0,0,4.3954,4.3983,4.3991,4.4028,4.4041,4.4105,4.4122,4.417,4.4204,4.4213,4.4291,4.4291,4.4286,4.4286,4.4304,4.4316,4.432,0,0,4.3979,4.3985,4.4009,4.4019,4.4077,4.4093,4.4149,4.4196,4.4215,4.4264,4.4266,4.4287,4.4287,4.4304,4.4344,4.4346,0,0,0,4.401,4.4027,4.4047,4.4081,4.4121,4.4154,4.4196,4.4214,4.4257,4.4238,4.4298,4.4298,4.4309,4.4316,4.4318,4.4329,4.4294,4.4294,4.4294,4.4017,4.4044,4.4086,4.4124,4.4156,4.4201,4.4229,4.426,4.4274,4.4288,4.4303,4.4324,4.4331,4.4333,4.4344,4.4311,4.4311,4.4311,4.4311,4.4057,4.4086,4.4109,4.4158,4.4185,4.4224,4.4268,4.4278,4.4317,4.4314,4.4325,4.4321,4.4335,4.4346,4.4311,4.4311,4.4311,4.4311,4.4311,4.4065,4.4084,4.4108,4.4162,4.42,4.4236,4.4275,4.4297,4.4318,4.4328,4.4347,4.4347,4.4351,4.4336,4.4336,4.4336,4.4336,4.4336,4.4336,4.4064,4.4091,4.4123,4.4171,4.4197,4.4233,4.428,4.4304,4.4338,4.4351,4.4351,4.4364,4.4332,4.4324,4.4338,4.4337,4.4337,4.4337,4.4337,4.4095,4.4093,4.4142,4.4168,4.4226,4.4263,4.4292,4.4342,4.4365,4.4384,4.4396,4.4368,4.4374,4.4372,4.4366,4.439,4.439,4.439,4.439,4.4102,4.4109,4.4166,4.4207,4.425,4.4283,4.4335,4.4372,4.4407,4.4423,4.4423,4.4416,4.4414,4.4421,4.4419,4.4413,4.4448,4.4448,4.4448,4.4123,4.4136,4.4178,4.4218,4.4266,4.4305,4.4356,4.44,4.4439,4.4451,4.4437,4.4434,4.4423,4.4418,4.4429,4.4424,4.4414,0,0]}]]